Back to catalog

HAWK-8A

AliveMilitaryVLEO
NORAD 59443·PAYLOAD·🇺🇸 United States

Launched Apr 7, 2024 from Cape Canaveral Space Force Station

Loading…

Next Passes (next 24 hours)

TLE

FreshSource: Space-Track

Epoch: Sep 14, 2026, 04:44 UTC

1 59443U 24066B   26257.19770701  .00001010  00000-0  99896-4 0  9994
2 59443  45.6029 176.3635 0002445 181.0723 179.0153 14.99413264133197

Track HAWK-8A in real time with AllMySat

Download on the App Store